Tracking 27401 objects as of 3-Jun-2023
HD Live streaming from Space Station
objects crossing your sky now

RADUGA 2

Track RADUGA 2 now!
RADUGA 2 is classified as:


NORAD ID: 9416
Int'l Code: 1976-092A
Perigee: 35,689.8 km
Apogee: 35,908.4 km
Inclination: 6.3 °
Period: 1,436.4 minutes
Semi major axis: 42170 km
RCS: 0.1428 m2 (medium)
Launch date: September 11, 1976
Source: Commonwealth of Independent States (former USSR) (CIS)
Launch site: TYURATAM MISSILE AND SPACE COMPLEX (TTMTR)
Your satellite tracking list
Your tracking list is empty




NASA's NSSDC Master Catalog

Two Line Element Set (TLE):
1 09416U 76092A   23153.78247170 -.00000139  00000-0  00000-0 0  9998
2 09416   6.3320 285.7666 0025922   9.0291 320.8799  1.00252695118207
Source of the keplerian elements: AFSPC